Location: Lecco
(45.8566°N, 9.3977°E)
Time: 03:36:13
(UTC+01:00)

ISS - Visible Passes

Search period start: 24 March 2019 00:00
Search period end: 03 April 2019 01:00
Orbit: 408 x 411 km, 51.6° (Epoch: 23 March)

Date Brightness Start Highest point End Pass type
(mag) Time Alt. Az. Time Alt. Az. Time Alt. Az.
24 Mar -3.8 19:30:52 10° SW 19:34:08 63° SSE 19:37:09 12° ENE visible
24 Mar -1.8 21:07:48 10° W 21:09:56 29° NW 21:09:56 29° NW visible
25 Mar -2.9 20:16:56 10° W 20:20:07 45° NNW 20:21:38 25° NE visible
25 Mar -0.3 21:54:17 10° WNW 21:54:25 11° WNW 21:54:25 11° WNW visible
26 Mar -3.4 19:26:06 10° WSW 19:29:24 65° NNW 19:32:42 10° ENE visible
26 Mar -1.9 21:03:26 10° WNW 21:05:59 28° NNW 21:05:59 28° NNW visible
27 Mar -2.3 20:12:31 10° WNW 20:15:33 32° N 20:17:28 18° NE visible
27 Mar -0.5 21:49:40 10° NW 21:50:14 14° NW 21:50:14 14° NW visible
28 Mar -2.6 19:21:36 10° W 19:24:44 39° NNW 19:27:53 10° NE visible
28 Mar -2.1 20:58:54 10° WNW 21:01:38 29° N 21:01:38 29° N visible
29 Mar -2.1 20:08:03 10° WNW 20:11:00 28° N 20:12:59 16° NE visible
29 Mar -0.8 21:44:53 10° NW 21:45:44 16° NW 21:45:44 16° NW visible
30 Mar -2.2 19:17:07 10° WNW 19:20:06 30° N 19:23:06 10° ENE visible
30 Mar -2.5 20:54:10 10° NW 20:57:03 35° N 20:57:03 35° N visible
31 Mar -2.3 21:03:24 10° WNW 21:06:23 30° N 21:08:20 17° ENE visible
31 Mar -1.0 22:39:59 10° WNW 22:41:05 19° WNW 22:41:05 19° WNW visible
01 Apr -3.3 21:49:16 10° WNW 21:52:22 52° N 21:52:22 52° N visible
02 Apr -2.9 20:58:32 10° NW 21:01:41 39° NNE 21:03:39 19° ENE visible
02 Apr -1.3 22:35:08 10° WNW 22:36:24 21° WNW 22:36:24 21° WNW visible
